Home   Weather   Leirvik   Past weeks
Flag for Norway

Past Weather in Leirvik, Norway — Yesterday and Last 2 Weeks

Now
52 °F

Scattered clouds.


Feels Like: 50 °F
Forecast: 52 / 45 °F
Wind: 6 mph from West

Location: Stord / Soerstokken

Current Time: Sep 16, 2019 at 12:29:40 pm

Latest Report: Sep 16, 2019 at 11:50 am


Visibility: N/A

Pressure: 29.89 "Hg

Humidity: 94%

Dew Point: 50 °F

Location of LeirvikLocation

Past Weather in Leirvik — Graph

°F

Leirvik Temperature Yesterday

Maximum temperature yesterday: 54 °F (at 2:50 pm)
Minimum temperature yesterday: 50 °F (at 10:20 am)
Average temperature yesterday: 52 °F

High & Low Weather Summary for the Past Weeks

 TemperatureHumidityPressure
High68 °F (Sep 8, 5:20 pm)100% (Sep 4, 7:20 pm)30.30 "Hg (Sep 4, 7:20 pm)
Low46 °F (Sep 13, 6:20 am)53% (Sep 8, 5:20 pm)29.56 "Hg (Sep 4, 3:20 pm)
Average55 °F84%29.87 "Hg
* Reported Sep 1 1:20 pm — Sep 16 11:20 am, Leirvik. Weather by CustomWeather, © 2019

Note: Actual official high and low records may vary slightly from our data, if they occured in-between our weather recording intervals... More about our weather records

Advertising

Leirvik Weather History for the Previous 24 Hours

Scroll right to see more
 ConditionsComfort  
Time TempWeatherWind HumidityBarometerVisibility
11:20 am
Mon, Sep 16
50 °FRain showers. Broken clouds.7 mph88%29.89 "HgN/A
10:50 am50 °FScattered clouds.8 mph88%29.89 "HgN/A
10:20 am50 °FScattered clouds.10 mph88%29.89 "HgN/A
9:50 am50 °FScattered clouds.10 mph82%29.89 "HgN/A
9:20 am50 °FScattered clouds.9 mph82%29.89 "HgN/A
8:50 am48 °FScattered clouds.10 mph87%29.89 "HgN/A
7:20 pm
Sun, Sep 15
52 °FBroken clouds.26 mph82%29.77 "HgN/A
6:50 pm52 °FBroken clouds.25 mph77%29.77 "HgN/A
6:20 pm52 °FScattered clouds.20 mph88%29.74 "HgN/A
5:50 pm52 °FScattered clouds.25 mph88%29.74 "HgN/A
5:20 pm52 °FBroken clouds.25 mph88%29.74 "HgN/A
4:50 pm52 °FScattered showers. Scattered clouds.20 mph94%29.71 "HgN/A
4:20 pm52 °FRain showers. Scattered clouds.18 mph94%29.71 "HgN/A
3:50 pm54 °FScattered clouds.28 mph82%29.68 "HgN/A
3:20 pm54 °FScattered clouds.24 mph82%29.68 "HgN/A
2:50 pm54 °FScattered clouds.25 mph82%29.68 "HgN/A
2:20 pm52 °FRain. Broken clouds.28 mph94%29.65 "Hg6 mi
1:50 pm52 °FLight rain. Broken clouds.22 mph94%29.65 "HgN/A
1:20 pm52 °FLight rain. Broken clouds.23 mph94%29.65 "Hg6 mi
12:50 pm52 °FLight rain. Broken clouds.25 mph94%29.62 "Hg6 mi
12:20 pm52 °FLight rain. Broken clouds.26 mph94%29.62 "Hg6 mi
Weather by CustomWeather, © 2019

See weather overview